Home   Weather   Seattle   Past weeks

Flag for USA Past Weather in Seattle, Washington, USA — Yesterday and Last 2 Weeks

Now
43 °F

Rain. Fog.


Feels Like: 41 °F
Forecast: 46 / 52 °F
Wind: 3 mph from South

Location: Seattle Boeing Field

Current Time: Jan 17, 2017 at 6:08:55 pm

Latest Report: Jan 17, 2017 at 5:29 pm


Visibility: 2 mi

Pressure: 29.55 "Hg

Humidity: 100%

Dew Point: 43 °F

Location of SeattleLocation

Past Weather in Seattle — Graph

°F

Seattle Temperature Yesterday

Maximum temperature yesterday: 46 °F (at 12:53 pm)
Minimum temperature yesterday: 28 °F (at 6:53 am)
Average temperature yesterday: 39 °F

High & Low Weather Summary for the Past Weeks

 TemperatureHumidityPressure
High46 °F (Jan 16, 12:53 pm)100% (Jan 8, 6:53 pm)30.46 "Hg (Jan 8, 6:53 pm)
Low18 °F (Jan 6, 7:53 am)27% (Jan 4, 11:53 am)29.44 "Hg (Jan 8, 2:53 pm)
Average34 °F69%30.06 "Hg
* Reported Jan 2 3:53 pm — Jan 17 3:53 pm, Seattle, Weather by CustomWeather, © 2017

Note: Actual official high and low records may vary slightly from our data, if they occured in-between our weather recording intervals... More about our weather records

Advertising

Seattle Weather History for the Previous 24 Hours

Scroll right to see more
 ConditionsComfort  
Time TempWeatherWind HumidityBarometerVisibility
3:53 pm
Tue, Jan 17
43 °FRain. Fog.No wind100%29.58 "Hg3 mi
2:53 pm43 °FRain. Fog.8 mph93%29.60 "Hg3 mi
1:53 pm44 °FRain. Fog.No wind96%29.68 "Hg3 mi
12:53 pm44 °FLight rain. More clouds than sun.6 mph93%29.72 "Hg10 mi
11:53 am46 °FLight rain. Mostly cloudy.6 mph73%29.75 "Hg9 mi
10:53 am45 °FOvercast.5 mph74%29.77 "Hg10 mi
9:53 am43 °FPartly sunny.7 mph79%29.76 "Hg10 mi
8:53 am41 °FLight rain. Overcast.7 mph93%29.76 "Hg10 mi
7:53 am41 °FLight rain. Overcast.No wind93%29.78 "Hg10 mi
6:53 am41 °FMostly cloudy.7 mph89%29.79 "Hg10 mi
5:53 am41 °FLight rain. Overcast.No wind89%29.83 "Hg10 mi
4:53 am41 °FLight rain. Overcast.9 mph82%29.85 "Hg10 mi
3:53 am42 °FLight rain. Overcast.No wind79%29.90 "Hg10 mi
2:53 am43 °FLight rain. Overcast.No wind68%29.91 "Hg10 mi
1:53 am43 °FOvercast.3 mph65%29.90 "Hg10 mi
12:53 am43 °FOvercast.3 mph62%29.92 "Hg10 mi
11:53 pm
Mon, Jan 16
43 °FOvercast.No wind62%29.94 "Hg10 mi
10:53 pm43 °FOvercast.No wind62%29.95 "Hg10 mi
9:53 pm45 °FOvercast.3 mph56%29.97 "Hg10 mi
8:53 pm45 °FOvercast.7 mph60%29.98 "Hg10 mi
7:53 pm45 °FOvercast.10 mph60%30.00 "Hg10 mi
6:53 pm46 °FOvercast.9 mph56%30.00 "Hg10 mi
Weather by CustomWeather, © 2017

See weather overviewHow to use our weather pages